Weather in Zhabdün

China     29°41′49″N   84°05′58″E
temp.,
°C
wind,
m/s
gust,
m/s
humid.,
%
clouds,
%
prec.,
mm/h
press.,
hPa
HPBL,
m
21 june, mon
mon2123:00+8s346592 0.9 1008722
02:00+6sse337187 1.1 1010574
05:00+5sse327863 0.1 1011494
08:00+5se327698 0.2 1011453
11:00+6sse226490 0.1 1011647
14:00+11s2345100 0.1 10061649
17:00+13ssw234293 0.1 10021813
20:00+13ssw554291 0.2 10011580
22 june, tue
tue2223:00+9ssw445759 0.0 1007732
02:00+7s237056 0.0 1010483
05:00+6sw2274100 0.1 1010423
08:00+6s2270100 0.1 1011442
11:00+7sse236390 0.1 1011630
14:00+12sse344089 0.1 10061743
17:00+16ssw4528100 0.0 9992794
20:00+15ssw773196 0.0 10002043
23 june, wed
wed2323:00+11ssw2447100 0.0 1007887
02:00+7s337058 0.0 1011522
05:00+6sse2273100 0.1 1011451
08:00+7sw2267100 0.1 1011633
11:00+9ssw125615 0.1 10111057
14:00+13s343683 0.1 10052279
17:00+17ssw662584 0.0 10002955
20:00+15sw773080 0.0 10011992
24 june, thu
thu2423:00+11sw344651 0.0 1007873
02:00+8s226136 0.0 1010508
05:00+7sw126475 0.0 1010560
08:00+7sw116026 0.0 1010378
11:00+9ssw11516 0.0 10091213
14:00+13s23345 0.0 10031954
17:00+18ssw562140 0.0 9963258
20:00+16sw762658 0.0 9972357
25 june, fri
fri2523:00+12sw4542100 0.0 1003889
02:00+9wsw125852 0.0 1006629
05:00+7w126293 0.0 1006669
08:00+7w225684 0.0 1007775
11:00+9sw124842 0.0 10071379
14:00+14s25305 0.0 10002098
17:00+18sw79161 0.0 9943099
20:00+16wsw88200 0.0 9952474